Regional Weather Roundup
Issued by NWS Nashville, TN

Home | Current Version | Previous Version | Text Only | Print | Product List | Glossary On
Versions: 1 2 3 4 5 6 7 8 9 10 11 12 13 14 15 16 17 18 19 20 21 22 23 24 25 26 27 28 29 30 31 32 33 34 35 36 37 38 39 40 41 42 43 44 45 46 47 48 49 50
000
ASUS44 KOHX 301315
RWROHX
MIDDLE TENNESSEE HOURLY WEATHER ROUNDUP
NATIONAL WEATHER SERVICE NASHVILLE TN
700 AM CST FRI JAN 30 2015

NOTE: "FAIR" INDICATES FEW OR NO CLOUDS BELOW 12,000 FEET WITH
NO SIGNIFICANT WEATHER AND/OR OBSTRUCTIONS TO VISIBILITY.

* THESE REPORTS ARE NOT UNDER NWS QUALITY CONTROL AND MAY NOT
  REPORT WEATHER SUCH AS PRECIPITATION AND FOG.


TNZ005>011-023>034-057-059-062>066-078-080-301400
...NORTHERN MIDDLE TENNESSEE...

CITY           SKY/WX    TMP DP  RH WIND       PRES   REMARKS
CLARKSVILLE    CLOUDY    34  25  69 N10       30.46R WCI  26
CROSSVILLE     CLOUDY    32  24  72 N12G23    30.32R WCI  23
GALLATIN       CLOUDY    34  26  72 NW9       30.43R WCI  27
DICKSON        CLOUDY    34  27  75 N9        30.42R WCI  26
LEBANON        CLOUDY    34  25  70 N13       30.40R WCI  25
LIVINGSTON     CLOUDY    33  28  82 N7        30.35R WCI  27
NASHVILLE      CLOUDY    35  23  61 N17G29    30.44R WCI  25
WEST NASHVILLE CLOUDY    34  23  64 N12       30.45R WCI  25
PORTLAND       CLOUDY    30  25  80 NW9       30.40R WCI  22
SMYRNA         CLOUDY    35  25  67 N14       30.45R WCI  26
SPARTA         CLOUDY    34  27  75 VRB6      30.36R WCI  29
$$
TNZ056-058-060-061-075>077-079-093>097-301400
...SOUTHERN MIDDLE TENNESSEE...

CITY           SKY/WX    TMP DP  RH WIND       PRES   REMARKS
COLUMBIA       CLOUDY    36  27  69 N6        30.41R WCI  31
LEWISBURG      CLOUDY    35  25  67 N9        30.41R WCI  28
MCMINNVILLE    CLOUDY    34  25  69 N10       30.37S WCI  26
SHELBYVILLE    CLOUDY    36  27  69 N10       30.41R WCI  28
TULLAHOMA      CLOUDY    34  25  69 N13       30.38R WCI  25
WINCHESTER     CLOUDY    34  27  75 N7        30.37S WCI  28
$$


...KEY TO REMARKS...
VSB - VISIBILITY IN MILES
WCI - WIND CHILL INDEX
HX  - HEAT INDEX



USA.gov is the U.S. government's official web portal to all federal, state and local government web resources and services.